Time,TemperatureF,DewpointF,PressureIn,WindDirection,WindDirectionDegrees,WindSpeedMPH,WindSpeedGustMPH,Humidity,HourlyPrecipIn,Conditions,Clouds,dailyrainin,SoftwareType,DateUTC
2013-11-13 00:11:00,23.3,15.0,30.52,East,97,5.0,9.0,69,0.00,,,0.00,weatherlink.com 1.10,2013-11-13 05:11:00,
2013-11-13 00:26:00,23.2,14.0,30.53,SE,134,1.0,10.0,69,0.00,,,0.00,weatherlink.com 1.10,2013-11-13 05:26:00,
2013-11-13 00:44:00,23.1,14.0,30.53,East,94,2.0,9.0,69,0.00,,,0.00,weatherlink.com 1.10,2013-11-13 05:44:00,
2013-11-13 00:56:00,23.0,15.0,30.53,ESE,118,3.0,7.0,70,0.00,,,0.00,weatherlink.com 1.10,2013-11-13 05:56:00,
2013-11-13 01:11:00,23.1,14.0,30.53,NE,56,4.0,11.0,69,0.00,,,0.00,weatherlink.com 1.10,2013-11-13 06:11:00,
2013-11-13 01:26:00,23.1,14.0,30.52,NE,51,3.0,9.0,69,0.00,,,0.00,weatherlink.com 1.10,2013-11-13 06:26:00,
2013-11-13 01:41:00,23.0,14.0,30.53,ENE,78,7.0,12.0,69,0.00,,,0.00,weatherlink.com 1.10,2013-11-13 06:41:00,
2013-11-13 01:56:00,22.9,14.0,30.52,ENE,67,8.0,16.0,68,0.00,,,0.00,weatherlink.com 1.10,2013-11-13 06:56:00,
2013-11-13 02:11:00,22.7,14.0,30.52,ENE,70,10.0,13.0,68,0.00,,,0.00,weatherlink.com 1.10,2013-11-13 07:11:00,
2013-11-13 02:26:00,22.7,14.0,30.52,ESE,116,3.0,14.0,69,0.00,,,0.00,weatherlink.com 1.10,2013-11-13 07:26:00,
2013-11-13 02:41:00,22.6,14.0,30.51,East,85,10.0,21.0,70,0.00,,,0.00,weatherlink.com 1.10,2013-11-13 07:41:00,
2013-11-13 02:56:00,22.4,14.0,30.51,ESE,115,4.0,11.0,70,0.00,,,0.00,weatherlink.com 1.10,2013-11-13 07:56:00,
2013-11-13 03:11:00,22.1,14.0,30.52,ESE,117,2.0,11.0,70,0.00,,,0.00,weatherlink.com 1.10,2013-11-13 08:11:00,
2013-11-13 03:26:00,21.9,14.0,30.52,ESE,110,1.0,15.0,71,0.00,,,0.00,weatherlink.com 1.10,2013-11-13 08:26:00,
2013-11-13 03:41:00,21.7,14.0,30.52,East,82,9.0,11.0,71,0.00,,,0.00,weatherlink.com 1.10,2013-11-13 08:41:00,
2013-11-13 03:56:00,21.6,14.0,30.52,East,95,5.0,11.0,71,0.00,,,0.00,weatherlink.com 1.10,2013-11-13 08:56:00,
2013-11-13 04:11:00,21.3,14.0,30.51,NE,46,5.0,11.0,72,0.00,,,0.00,weatherlink.com 1.10,2013-11-13 09:11:00,
2013-11-13 04:28:00,21.1,14.0,30.52,ESE,108,0.0,10.0,73,0.00,,,0.00,weatherlink.com 1.10,2013-11-13 09:28:00,
2013-11-13 04:41:00,21.2,14.0,30.52,ESE,107,2.0,10.0,74,0.00,,,0.00,weatherlink.com 1.10,2013-11-13 09:41:00,
2013-11-13 04:56:00,21.3,15.0,30.53,ESE,119,4.0,11.0,75,0.00,,,0.00,weatherlink.com 1.10,2013-11-13 09:56:00,
2013-11-13 05:11:00,21.3,15.0,30.54,East,98,1.0,11.0,75,0.00,,,0.00,weatherlink.com 1.10,2013-11-13 10:11:00,
2013-11-13 05:26:00,21.2,14.0,30.53,ENE,78,3.0,11.0,75,0.00,,,0.00,weatherlink.com 1.10,2013-11-13 10:26:00,
2013-11-13 05:41:00,21.1,14.0,30.54,ESE,108,3.0,9.0,75,0.00,,,0.00,weatherlink.com 1.10,2013-11-13 10:41:00,
2013-11-13 05:56:00,20.9,14.0,30.54,ENE,62,2.0,9.0,76,0.00,,,0.00,weatherlink.com 1.10,2013-11-13 10:56:00,
2013-11-13 06:11:00,20.7,14.0,30.55,ESE,111,3.0,7.0,76,0.00,,,0.00,weatherlink.com 1.10,2013-11-13 11:11:00,
2013-11-13 06:26:00,20.5,14.0,30.55,East,100,0.0,6.0,76,0.00,,,0.00,weatherlink.com 1.10,2013-11-13 11:26:00,
2013-11-13 06:41:00,20.3,14.0,30.56,East,98,2.0,5.0,77,0.00,,,0.00,weatherlink.com 1.10,2013-11-13 11:41:00,
2013-11-13 06:56:00,20.1,14.0,30.57,ESE,121,1.0,7.0,77,0.00,,,0.00,weatherlink.com 1.10,2013-11-13 11:56:00,
2013-11-13 07:11:00,20.0,14.0,30.58,East,89,0.0,5.0,77,0.00,,,0.00,weatherlink.com 1.10,2013-11-13 12:11:00,
2013-11-13 07:27:00,20.1,14.0,30.59,East,80,5.0,7.0,78,0.00,,,0.00,weatherlink.com 1.10,2013-11-13 12:27:00,
2013-11-13 07:42:00,20.3,14.0,30.60,East,84,1.0,7.0,78,0.00,,,0.00,weatherlink.com 1.10,2013-11-13 12:42:00,
2013-11-13 07:57:00,20.5,14.0,30.60,ESE,115,2.0,7.0,77,0.00,,,0.00,weatherlink.com 1.10,2013-11-13 12:57:00,
2013-11-13 08:12:00,21.0,15.0,30.61,East,98,1.0,9.0,76,0.00,,,0.00,weatherlink.com 1.10,2013-11-13 13:12:00,
2013-11-13 08:27:00,21.4,15.0,30.61,ESE,102,3.0,9.0,75,0.00,,,0.00,weatherlink.com 1.10,2013-11-13 13:27:00,
2013-11-13 08:42:00,21.7,15.0,30.61,East,92,1.0,7.0,74,0.00,,,0.00,weatherlink.com 1.10,2013-11-13 13:42:00,
2013-11-13 08:57:00,22.1,15.0,30.62,East,82,0.0,9.0,73,0.00,,,0.00,weatherlink.com 1.10,2013-11-13 13:57:00,
2013-11-13 09:12:00,22.6,15.0,30.62,ESE,110,2.0,11.0,71,0.00,,,0.00,weatherlink.com 1.10,2013-11-13 14:12:00,
2013-11-13 09:27:00,23.2,14.0,30.62,ESE,107,2.0,7.0,69,0.00,,,0.00,weatherlink.com 1.10,2013-11-13 14:27:00,
2013-11-13 09:42:00,23.8,15.0,30.63,ESE,114,1.0,8.0,68,0.00,,,0.00,weatherlink.com 1.10,2013-11-13 14:42:00,
2013-11-13 09:57:00,24.6,14.0,30.64,SE,141,1.0,5.0,65,0.00,,,0.00,weatherlink.com 1.10,2013-11-13 14:57:00,
2013-11-13 10:12:00,24.9,15.0,30.64,East,85,5.0,9.0,65,0.00,,,0.00,weatherlink.com 1.10,2013-11-13 15:12:00,
2013-11-13 10:27:00,25.6,15.0,30.65,ESE,106,2.0,8.0,64,0.00,,,0.00,weatherlink.com 1.10,2013-11-13 15:27:00,
2013-11-13 10:42:00,26.9,15.0,30.64,East,88,5.0,7.0,61,0.00,,,0.00,weatherlink.com 1.10,2013-11-13 15:42:00,
2013-11-13 10:58:00,27.8,15.0,30.64,East,93,0.0,10.0,59,0.00,,,0.00,weatherlink.com 1.10,2013-11-13 15:58:00,
2013-11-13 11:12:00,28.6,15.0,30.64,ENE,78,4.0,13.0,57,0.00,,,0.00,weatherlink.com 1.10,2013-11-13 16:12:00,
2013-11-13 11:27:00,29.5,15.0,30.63,ESE,114,1.0,11.0,56,0.00,,,0.00,weatherlink.com 1.10,2013-11-13 16:27:00,
2013-11-13 11:42:00,30.5,16.0,30.62,ESE,106,2.0,11.0,55,0.00,,,0.00,weatherlink.com 1.10,2013-11-13 16:42:00,
2013-11-13 11:57:00,31.5,15.0,30.62,East,80,6.0,15.0,51,0.00,,,0.00,weatherlink.com 1.10,2013-11-13 16:57:00,
2013-11-13 12:12:00,31.7,16.0,30.61,ESE,120,3.0,9.0,52,0.00,,,0.00,weatherlink.com 1.10,2013-11-13 17:12:00,
2013-11-13 12:27:00,32.0,16.0,30.60,East,100,3.0,9.0,53,0.00,,,0.00,weatherlink.com 1.10,2013-11-13 17:27:00,
2013-11-13 12:42:00,32.5,16.0,30.60,SE,138,1.0,9.0,52,0.00,,,0.00,weatherlink.com 1.10,2013-11-13 17:42:00,
2013-11-13 12:57:00,33.0,17.0,30.59,East,100,2.0,12.0,52,0.00,,,0.00,weatherlink.com 1.10,2013-11-13 17:57:00,
2013-11-13 13:12:00,33.2,17.0,30.59,ESE,108,2.0,12.0,51,0.00,,,0.00,weatherlink.com 1.10,2013-11-13 18:12:00,
2013-11-13 13:28:00,33.3,16.0,30.60,ESE,119,3.0,7.0,50,0.00,,,0.00,weatherlink.com 1.10,2013-11-13 18:28:00,
2013-11-13 13:43:00,33.6,17.0,30.59,East,91,8.0,9.0,50,0.00,,,0.00,weatherlink.com 1.10,2013-11-13 18:43:00,
2013-11-13 13:58:00,34.2,17.0,30.59,ESE,121,2.0,8.0,50,0.00,,,0.00,weatherlink.com 1.10,2013-11-13 18:58:00,
2013-11-13 14:13:00,34.3,17.0,30.59,NE,43,7.0,10.0,49,0.00,,,0.00,weatherlink.com 1.10,2013-11-13 19:13:00,
2013-11-13 14:28:00,34.3,17.0,30.58,East,93,6.0,10.0,49,0.00,,,0.00,weatherlink.com 1.10,2013-11-13 19:28:00,
2013-11-13 14:43:00,34.7,18.0,30.58,ENE,74,4.0,10.0,50,0.00,,,0.00,weatherlink.com 1.10,2013-11-13 19:43:00,
2013-11-13 14:58:00,34.9,18.0,30.58,East,98,5.0,8.0,50,0.00,,,0.00,weatherlink.com 1.10,2013-11-13 19:58:00,
2013-11-13 15:13:00,35.7,18.0,30.58,East,97,0.0,7.0,48,0.00,,,0.00,weatherlink.com 1.10,2013-11-13 20:13:00,
2013-11-13 15:28:00,35.5,17.0,30.58,ENE,64,2.0,10.0,48,0.00,,,0.00,weatherlink.com 1.10,2013-11-13 20:28:00,
2013-11-13 15:43:00,34.7,18.0,30.58,East,96,2.0,8.0,51,0.00,,,0.00,weatherlink.com 1.10,2013-11-13 20:43:00,
2013-11-13 15:58:00,34.3,18.0,30.58,East,86,0.0,8.0,51,0.00,,,0.00,weatherlink.com 1.10,2013-11-13 20:58:00,
2013-11-13 16:13:00,33.6,18.0,30.59,ENE,58,2.0,3.0,52,0.00,,,0.00,weatherlink.com 1.10,2013-11-13 21:13:00,
2013-11-13 16:28:00,32.9,18.0,30.59,NE,45,1.0,7.0,54,0.00,,,0.00,weatherlink.com 1.10,2013-11-13 21:28:00,
2013-11-13 16:43:00,32.3,18.0,30.59,North,350,0.0,2.0,55,0.00,,,0.00,weatherlink.com 1.10,2013-11-13 21:43:00,
2013-11-13 16:58:00,31.3,18.0,30.59,NE,53,0.0,3.0,57,0.00,,,0.00,weatherlink.com 1.10,2013-11-13 21:58:00,
2013-11-13 17:13:00,30.9,18.0,30.59,ENE,76,0.0,4.0,58,0.00,,,0.00,weatherlink.com 1.10,2013-11-13 22:13:00,
2013-11-13 17:28:00,30.4,17.0,30.59,East,80,0.0,1.0,59,0.00,,,0.00,weatherlink.com 1.10,2013-11-13 22:28:00,
2013-11-13 17:43:00,29.7,17.0,30.60,East,80,1.0,2.0,60,0.00,,,0.00,weatherlink.com 1.10,2013-11-13 22:43:00,
2013-11-13 17:58:00,29.3,17.0,30.60,ENE,76,0.0,2.0,61,0.00,,,0.00,weatherlink.com 1.10,2013-11-13 22:58:00,
2013-11-13 18:13:00,28.6,17.0,30.60,ENE,76,0.0,1.0,63,0.00,,,0.00,weatherlink.com 1.10,2013-11-13 23:13:00,
2013-11-13 18:43:00,27.8,17.0,30.61,ENE,76,0.0,1.0,64,0.00,,,0.00,weatherlink.com 1.10,2013-11-13 23:43:00,
2013-11-13 18:58:00,27.2,17.0,30.60,ENE,76,0.0,2.0,65,0.00,,,0.00,weatherlink.com 1.10,2013-11-13 23:58:00,
2013-11-13 19:15:00,26.2,17.0,30.60,ENE,76,0.0,1.0,68,0.00,,,0.00,weatherlink.com 1.10,2013-11-14 00:15:00,
2013-11-13 19:28:00,25.8,17.0,30.60,ENE,76,0.0,0.0,69,0.00,,,0.00,weatherlink.com 1.10,2013-11-14 00:28:00,
2013-11-13 19:43:00,25.1,17.0,30.60,ENE,76,0.0,0.0,70,0.00,,,0.00,weatherlink.com 1.10,2013-11-14 00:43:00,
2013-11-13 19:58:00,24.7,17.0,30.59,ENE,76,0.0,0.0,71,0.00,,,0.00,weatherlink.com 1.10,2013-11-14 00:58:00,
2013-11-13 20:13:00,24.0,17.0,30.59,ENE,76,1.0,2.0,75,0.00,,,0.00,weatherlink.com 1.10,2013-11-14 01:13:00,
2013-11-13 20:28:00,23.9,17.0,30.59,ENE,76,0.0,2.0,74,0.00,,,0.00,weatherlink.com 1.10,2013-11-14 01:28:00,
2013-11-13 20:43:00,23.6,16.0,30.59,ENE,76,0.0,0.0,74,0.00,,,0.00,weatherlink.com 1.10,2013-11-14 01:43:00,
2013-11-13 20:58:00,23.0,17.0,30.59,ENE,76,0.0,2.0,77,0.00,,,0.00,weatherlink.com 1.10,2013-11-14 01:58:00,
2013-11-13 21:13:00,22.5,16.0,30.59,ENE,76,1.0,1.0,77,0.00,,,0.00,weatherlink.com 1.10,2013-11-14 02:13:00,
2013-11-13 21:28:00,22.0,16.0,30.59,ENE,76,0.0,1.0,78,0.00,,,0.00,weatherlink.com 1.10,2013-11-14 02:28:00,
2013-11-13 21:43:00,21.5,16.0,30.59,ENE,76,0.0,0.0,78,0.00,,,0.00,weatherlink.com 1.10,2013-11-14 02:43:00,
2013-11-13 21:58:00,21.0,15.0,30.59,ENE,76,0.0,0.0,79,0.00,,,0.00,weatherlink.com 1.10,2013-11-14 02:58:00,
2013-11-13 22:13:00,20.6,15.0,30.58,ENE,76,0.0,0.0,80,0.00,,,0.00,weatherlink.com 1.10,2013-11-14 03:13:00,
2013-11-13 22:28:00,20.3,15.0,30.58,ENE,76,0.0,0.0,80,0.00,,,0.00,weatherlink.com 1.10,2013-11-14 03:28:00,
2013-11-13 22:43:00,19.8,15.0,30.57,ENE,76,0.0,0.0,82,0.00,,,0.00,weatherlink.com 1.10,2013-11-14 03:43:00,
2013-11-13 22:59:00,19.5,15.0,30.58,ENE,76,0.0,1.0,83,0.00,,,0.00,weatherlink.com 1.10,2013-11-14 03:59:00,
2013-11-13 23:13:00,19.2,15.0,30.57,ENE,76,0.0,0.0,82,0.00,,,0.00,weatherlink.com 1.10,2013-11-14 04:13:00,
2013-11-13 23:28:00,19.2,15.0,30.57,ENE,76,0.0,0.0,83,0.00,,,0.00,weatherlink.com 1.10,2013-11-14 04:28:00,
2013-11-13 23:43:00,19.0,15.0,30.57,ENE,76,0.0,0.0,83,0.00,,,0.00,weatherlink.com 1.10,2013-11-14 04:43:00,
2013-11-13 23:58:00,18.6,14.0,30.57,ENE,76,0.0,0.0,83,0.00,,,0.00,weatherlink.com 1.10,2013-11-14 04:58:00,